Weather reports worldwide

Advertisment
Lugo/Rozas, Spain (8008): temperature & dewpoint: 18.11.2020 23:00:00 - 24.11.2020 23:00:00 (CET)Lugo/Rozas, Spain (8008): wind speed: 18.11.2020 23:00:00 - 24.11.2020 23:00:00 (CET)Lugo/Rozas, Spain (8008): wind direction: 18.11.2020 23:00:00 - 24.11.2020 23:00:00 (CET)Lugo/Rozas, Spain (8008): reduced air pressure: 18.11.2020 23:00:00 - 24.11.2020 23:00:00 (CET)Lugo/Rozas, Spain (8008): visibility: 18.11.2020 23:00:00 - 24.11.2020 23:00:00 (CET)Lugo/Rozas, Spain (8008): precipitation: 18.11.2020 23:00:00 - 24.11.2020 23:00:00 (CET)
Date & Time tt [°C] td [°C] ff [km/h] ff [kn] dd ppp [hPa] vv [km] rr [mm]
24.11.2020 23:00:00 11,5 8,4 11 6 SSW 1014,0 9 0,2
24.11.2020 22:00:00 11,9 7,0 11 6 SSW 1013,9 20 -
24.11.2020 21:00:00 11,7 7,2 11 6 SSW 1014,4 20 0,0
24.11.2020 20:00:00 11,8 7,3 8 4 SSW 1014,8 20 0,0
24.11.2020 19:00:00 12,7 7,6 11 6 SSW 1015,3 20 -
24.11.2020 18:00:00 12,9 7,6 8 4 SSW 1015,2 20 0,0
24.11.2020 17:00:00 13,2 7,8 9 5 S 1015,7 20 0,0
24.11.2020 16:00:00 13,8 7,1 9 5 SSW 1016,2 20 -
24.11.2020 15:00:00 13,4 7,2 13 7 SW 1017,2 20 0,0
24.11.2020 14:00:00 12,7 6,9 11 6 SW 1018,5 20 0,0
24.11.2020 13:00:00 13,0 7,0 11 6 SSW 1019,3 20 -
24.11.2020 12:00:00 13,1 6,9 9 5 S 1020,3 17 0,0
24.11.2020 11:00:00 10,8 6,7 11 6 S 1021,3 19 0,0
24.11.2020 10:00:00 8,1 5,4 9 5 S 1022,0 20 -
24.11.2020 09:00:00 5,4 5,1 8 4 SSW 1023,0 20 0,0
24.11.2020 08:00:00 6,3 4,6 8 4 SW 1023,0 20 0,0
24.11.2020 07:00:00 0,7 0,3 2 1 N 1024,1 3,3 -
24.11.2020 06:00:00 1,3 0,6 0 0 N 1023,9 7 0,0
24.11.2020 05:00:00 2,5 2,5 5 3 S 1023,6 16 0,0
24.11.2020 04:00:00 1,0 0,4 0 0 N 1024,5 8 -
24.11.2020 03:00:00 1,4 1,0 2 1 SSW 1024,8 0,2 0,0
24.11.2020 02:00:00 2,5 2,2 2 1 SSE 1025,2 0,6 0,0
24.11.2020 01:00:00 3,1 2,7 4 2 SSE 1025,7 3,4 -
24.11.2020 00:00:00 4,0 3,4 0 0 N 1026,0 4,5 0,0
23.11.2020 23:00:00 4,7 3,8 2 1 SW 1026,4 4,6 0,0
23.11.2020 22:00:00 5,1 4,4 2 1 SSE 1026,6 8 -
23.11.2020 21:00:00 5,9 4,9 4 2 SE 1026,6 8 0,0
23.11.2020 20:00:00 7,1 5,9 2 1 S 1026,5 2,8 0,0
23.11.2020 19:00:00 8,7 6,8 0 0 N 1026,2 3,6 -
23.11.2020 18:00:00 11,0 8,6 2 1 SE 1025,7 9 0,0
23.11.2020 17:00:00 12,3 9,5 0 0 N 1025,5 18 0,0
23.11.2020 16:00:00 12,5 8,8 2 1 ENE 1025,7 17 -
23.11.2020 15:00:00 11,6 8,3 2 1 N 1026,4 20 0,0
23.11.2020 14:00:00 8,9 7,0 2 1 E 1027,7 18 0,0
23.11.2020 13:00:00 5,2 5,2 2 1 N 1029,6 0,4 -
23.11.2020 12:00:00 3,3 3,3 2 1 NNW 1030,7 0,2 0,0
23.11.2020 11:00:00 1,9 1,9 2 1 NNW 1031,2 0,9 0,0
23.11.2020 10:00:00 0,7 0,6 0 0 N 1031,3 0,3 -
23.11.2020 09:00:00 0,3 -0,1 0 0 N 1031,0 0,1 0,0
23.11.2020 08:00:00 0,4 0,0 0 0 N 1030,5 1,5 0,0
23.11.2020 07:00:00 0,7 0,6 0 0 N 1030,5 0,1 -
23.11.2020 06:00:00 0,5 0,1 2 1 NNW 1030,4 4,1 0,0
23.11.2020 05:00:00 0,7 0,4 2 1 SE 1030,5 0,1 0,0
23.11.2020 04:00:00 0,9 0,5 2 1 ESE 1030,6 3,8 -
23.11.2020 03:00:00 1,3 0,7 2 1 SE 1030,9 1,1 0,0
23.11.2020 02:00:00 2,3 1,6 4 2 SSE 1030,5 6 0,0
23.11.2020 01:00:00 2,8 1,8 2 1 S 1031,1 3,8 -
23.11.2020 00:00:00 3,5 2,8 2 1 S 1030,9 2,0 0,0
22.11.2020 23:00:00 4,1 3,5 0 0 N 1030,7 3,7 0,0
22.11.2020 22:00:00 4,8 3,9 4 2 SSE 1030,4 8 -
22.11.2020 21:00:00 5,9 4,9 4 2 SSE 1030,1 11 0,0
22.11.2020 20:00:00 6,9 5,4 4 2 SSE 1029,7 15 0,0
22.11.2020 19:00:00 9,1 6,5 5 3 SSE 1028,8 19 -
22.11.2020 18:00:00 13,4 7,8 4 2 SSE 1027,6 20 0,0
22.11.2020 17:00:00 16,9 7,8 2 1 NE 1026,4 20 0,0
22.11.2020 16:00:00 18,3 8,3 2 1 N 1026,0 17 -
22.11.2020 15:00:00 17,6 9,7 2 1 SSE 1026,3 20 0,0
22.11.2020 14:00:00 15,2 9,1 2 1 N 1027,1 20 0,0
22.11.2020 13:00:00 11,7 8,7 4 2 NW 1028,6 20 -
22.11.2020 12:00:00 8,8 6,8 2 1 NNW 1029,6 20 0,0
22.11.2020 11:00:00 5,9 5,2 4 2 NNW 1030,4 19 0,0
22.11.2020 10:00:00 3,6 3,3 0 0 N 1030,7 7 -
22.11.2020 09:00:00 1,2 0,9 2 1 SE 1030,8 0,3 0,0
22.11.2020 08:00:00 1,3 0,7 0 0 N 1030,5 0,2 0,0
22.11.2020 07:00:00 2,0 1,6 2 1 W 1029,9 0,6 -
22.11.2020 06:00:00 3,1 2,8 0 0 N 1029,2 0,6 0,0
22.11.2020 05:00:00 3,7 3,6 4 2 E 1028,5 0,1 0,0
22.11.2020 04:00:00 3,9 3,8 0 0 N 1028,5 0,1 -
22.11.2020 03:00:00 3,8 3,8 2 1 ENE 1028,2 0,1 0,0
22.11.2020 02:00:00 4,3 3,9 0 0 N 1028,0 0,5 0,0
22.11.2020 01:00:00 4,8 4,5 0 0 N 1028,1 0,2 -
22.11.2020 00:00:00 4,8 4,2 2 1 SSE 1028,1 4,6 0,0
21.11.2020 23:00:00 5,5 4,8 2 1 NNW 1028,0 5 0,0
21.11.2020 22:00:00 6,1 5,4 4 2 S 1027,5 4,9 -
21.11.2020 21:00:00 7,1 5,9 2 1 S 1027,6 8 0,0
21.11.2020 20:00:00 8,4 7,2 2 1 SSW 1027,2 7 0,0
21.11.2020 19:00:00 10,0 7,8 2 1 S 1026,7 15 -
21.11.2020 18:00:00 13,7 9,7 2 1 S 1025,7 20 0,0
21.11.2020 17:00:00 16,7 10,3 2 1 NNE 1024,7 20 0,0
21.11.2020 16:00:00 17,1 10,0 2 1 NNW 1024,7 20 -
21.11.2020 15:00:00 16,7 10,1 4 2 N 1025,3 20 0,0
21.11.2020 14:00:00 15,7 10,0 4 2 NNE 1026,0 20 0,0
21.11.2020 13:00:00 13,4 8,9 4 2 WNW 1027,5 20 -
21.11.2020 12:00:00 10,8 8,0 2 1 NW 1028,9 20 0,0
21.11.2020 11:00:00 7,3 6,6 4 2 NW 1029,5 19 0,0
21.11.2020 10:00:00 4,7 4,6 0 0 N 1030,2 12 -
21.11.2020 09:00:00 1,8 1,2 0 0 N 1030,9 7 0,0
21.11.2020 08:00:00 2,1 1,5 2 1 SSE 1030,4 11 0,0
21.11.2020 07:00:00 2,4 1,8 4 2 SSE 1030,1 17 -
21.11.2020 06:00:00 2,7 2,0 2 1 SSE 1030,2 18 0,0
21.11.2020 05:00:00 3,2 2,5 2 1 SW 1030,1 12 0,0
21.11.2020 04:00:00 3,4 3,0 2 1 S 1030,4 13 -
21.11.2020 03:00:00 3,9 3,2 4 2 SE 1030,6 17 0,0
21.11.2020 02:00:00 4,3 3,6 2 1 SSW 1031,0 13 0,0
21.11.2020 01:00:00 4,9 4,2 2 1 SSW 1031,4 14 -
21.11.2020 00:00:00 5,7 4,7 2 1 S 1031,5 18 0,0
20.11.2020 23:00:00 6,6 5,9 5 3 ESE 1031,7 19 0,0
20.11.2020 22:00:00 6,9 5,7 2 1 ENE 1031,9 18 -
20.11.2020 21:00:00 7,6 6,5 8 4 E 1031,9 19 0,0
20.11.2020 20:00:00 8,6 6,9 2 1 E 1032,2 20 0,0
20.11.2020 19:00:00 9,4 7,3 5 3 ENE 1032,1 20 -
20.11.2020 18:00:00 11,0 8,4 4 2 NNE 1031,7 20 0,0
20.11.2020 17:00:00 13,6 9,0 2 1 NW 1030,5 20 0,0
20.11.2020 16:00:00 13,8 8,4 13 7 ENE 1030,7 20 -
20.11.2020 15:00:00 14,3 8,0 9 5 NE 1031,4 20 0,0
20.11.2020 14:00:00 14,2 7,7 5 3 NE 1032,2 20 0,0
20.11.2020 13:00:00 13,3 7,5 8 4 NE 1033,4 20 -
20.11.2020 12:00:00 12,0 7,3 8 4 ENE 1034,4 20 0,0
20.11.2020 11:00:00 10,0 6,9 8 4 E 1035,2 20 0,0
20.11.2020 10:00:00 8,6 6,9 4 2 ENE 1035,4 20 -
20.11.2020 09:00:00 6,0 5,4 2 1 NNE 1035,7 9 0,0
20.11.2020 08:00:00 7,1 6,2 5 3 ENE 1035,8 19 0,0
20.11.2020 07:00:00 8,0 6,8 8 4 ENE 1035,7 20 -
20.11.2020 06:00:00 8,4 7,2 5 3 ENE 1035,7 20 0,0
20.11.2020 05:00:00 8,5 7,3 5 3 NE 1035,9 20 0,0
20.11.2020 04:00:00 8,8 7,4 5 3 NE 1036,1 20 -
20.11.2020 03:00:00 8,8 7,6 4 2 NE 1036,1 20 0,0
20.11.2020 02:00:00 9,0 7,3 5 3 NE 1036,6 20 0,0
20.11.2020 01:00:00 9,4 7,5 9 5 ENE 1037,3 20 -
20.11.2020 00:00:00 9,4 8,3 8 4 ENE 1037,4 20 0,0
19.11.2020 23:00:00 9,4 8,5 11 6 ENE 1037,5 20 0,0
19.11.2020 22:00:00 9,5 8,6 11 6 NE 1037,3 20 -
19.11.2020 21:00:00 9,7 8,8 5 3 NE 1037,0 20 0,0
19.11.2020 20:00:00 9,9 9,0 5 3 ENE 1036,8 20 0,0
19.11.2020 19:00:00 10,1 9,2 5 3 NE 1037,2 20 -
19.11.2020 18:00:00 10,3 9,1 11 6 ENE 1036,9 20 0,0
19.11.2020 17:00:00 10,6 9,2 15 8 ENE 1036,7 20 0,0
19.11.2020 16:00:00 11,1 9,7 11 6 NE 1036,8 20 -
19.11.2020 15:00:00 11,8 10,2 8 4 NE 1035,9 20 0,0
19.11.2020 14:00:00 12,1 10,3 8 4 NE 1036,8 20 0,0
19.11.2020 13:00:00 12,2 10,6 5 3 ENE 1036,5 20 -
19.11.2020 12:00:00 11,7 10,3 8 4 NE 1037,3 20 0,0
19.11.2020 11:00:00 11,3 10,0 4 2 NNE 1037,0 20 0,0
19.11.2020 10:00:00 10,4 9,6 8 4 NE 1036,5 20 -
19.11.2020 09:00:00 10,2 9,4 8 4 NE 1036,4 20 0,0
19.11.2020 08:00:00 10,5 9,9 8 4 ENE 1035,8 20 0,0
19.11.2020 07:00:00 10,6 10,1 11 6 ENE 1035,2 20 -
19.11.2020 06:00:00 10,4 10,4 5 3 NE 1034,4 19 0,0
19.11.2020 05:00:00 10,4 9,9 4 2 ENE 1033,4 20 0,0
19.11.2020 04:00:00 10,7 10,2 8 4 ENE 1033,3 20 -
19.11.2020 03:00:00 11,7 10,8 9 5 ENE 1032,5 20 0,0
19.11.2020 02:00:00 12,0 12,0 11 6 ENE 1032,4 20 0,0
19.11.2020 01:00:00 10,7 10,2 2 1 ESE 1032,8 6 -
19.11.2020 00:00:00 11,7 10,6 2 1 S 1031,7 15 0,0
18.11.2020 23:00:00 13,5 12,4 4 2 ESE 1030,1 20 0,2

tt = temperature
td = dewpoint
ff = wind speed
dd = wind direction
ppp = reduced air pressure
vv = visibility
rr = precipitation

Next stations